User: anonymous   Login
Location: Bédeille
(43.0872°N, 1.1041°E)
Time: 03:09:38
(UTC+00:00)
Language:

YAOGAN 11 - Orbit

View from above orbital plane
View from above orbital plane
View from above satellite
View from above satellite

Ground track
Ground track

The orbit data is extracted from the following two-line orbital elements,

1 37165U 10047A   24060.47157555  .00001158  00000-0  16447-3 0  9995
2 37165  98.4270 234.0586 0037877  49.4699 310.9799 14.78574194723982
Epoch (UTC): 29 February 2024 11:19:04
Eccentricity: 0.0037877
inclination: 98.4270°
perigee height: 607 km
apogee height: 660 km
right ascension of ascending node: 234.0586°
argument of perigee: 49.4699°
revolutions per day: 14.78574194
mean anomaly at epoch: 310.9799°
orbit number at epoch: 72398

The dashed part of the orbit path shows where the satellite is in the earth's shadow,  

DLR